Lid_Strength_Index
12 14 17 16 15 14 15 15 17 16 14 16 18 19 17 15 16 16 15 14 14 13 13 12 13 13 13 13 13 13 12 11 11 11 11 10 11 9 9 8 7 7 6 6
14 17 14 13 14 15 16 17 19 17 15 16 18 19 17 16 17 17 17 16 16 16 15 14 14 14 15 14 14 14 13 13 13 12 12 11 11 10 10 9 9 8 8 7
16 15 13 15 16 15 17 18 19 18 17 17 19 19 18 18 17 17 17 17 17 17 17 16 15 16 16 16 15 14 14 13 14 13 13 13 13 13 13 12 11 10 9 8
16 15 16 16 17 16 17 17 17 17 20 24 19 23 20 19 19 18 18 19 19 19 17 16 16 16 16 16 15 15 14 14 13 14 14 15 15 16 14 13 13 12 11 10
17 17 17 17 17 16 18 16 17 18 22 22 22 25 21 20 20 19 19 19 20 19 18 18 17 16 16 16 16 16 15 14 14 14 14 15 15 15 14 14 13 12 12 11
17 15 17 17 16 16 16 18 18 20 23 26 27 25 21 21 20 20 19 19 19 20 19 18 17 16 16 16 16 15 15 15 14 14 14 14 15 15 14 14 14 13 13 12
18 18 17 17 18 17 18 21 25 24 26 23 31 26 20 20 20 19 19 19 19 19 19 18 18 18 17 17 16 15 15 15 14 14 14 14 14 14 14 14 14 14 13 13
23 21 19 17 18 19 19 22 25 29 27 25 31 26 20 20 19 19 18 18 18 19 18 19 18 18 17 17 16 16 15 15 15 14 14 14 13 13 13 13 13 13 13 13
23 21 18 17 17 19 19 24 21 29 35 30 25 21 19 19 20 20 20 19 19 19 19 18 18 18 18 17 16 16 15 15 15 15 14 14 14 14 14 13 13 13 13 12
20 23 21 18 18 18 19 19 24 26 29 30 27 29 22 23 23 21 20 20 19 19 18 18 18 18 17 16 16 16 15 15 15 15 14 14 14 13 13 13 13 13 13 12
20 24 21 19 24 23 23 24 23 23 23 27 30 25 22 23 23 22 22 20 23 22 20 18 18 17 17 17 17 16 16 15 15 15 14 14 13 13 13 13 13 13 13 12
18 20 26 22 20 19 19 20 20 24 26 26 26 24 22 26 29 27 23 21 22 23 21 21 18 18 18 17 17 17 16 15 15 14 14 13 13 13 13 13 13 13 12 11
18 25 28 23 22 21 22 20 20 24 22 26 28 23 26 28 28 26 27 25 24 24 24 22 20 19 18 18 17 17 16 16 15 14 14 14 13 14 14 13 12 11 11 11
16 21 24 24 23 24 24 22 21 23 29 25 23 20 18 22 23 25 26 26 27 26 25 25 23 21 19 18 19 18 17 16 15 14 14 14 14 13 13 12 11 11 11 11
19 27 24 24 24 27 23 23 24 24 24 25 20 25 19 24 24 26 28 30 29 26 26 25 26 23 22 21 21 20 18 16 15 16 16 15 14 13 12 11 11 11 11 11
19 28 28 27 23 23 24 22 23 22 21 27 22 22 22 31 34 29 27 30 28 27 26 24 25 24 23 22 20 19 18 18 17 18 17 15 14 13 12 12 11 11 12 11
23 29 31 29 28 28 27 24 23 25 27 25 26 22 32 28 29 30 28 30 28 28 25 25 25 24 23 21 20 20 18 17 18 17 16 15 14 14 13 12 12 13 13 12
28 29 32 30 31 32 21 23 23 24 23 25 25 26 28 27 28 27 29 28 27 26 25 24 23 24 23 22 22 19 19 19 18 17 15 14 15 13 13 13 13 13 13 13
21 25 29 32 37 25 22 24 23 23 23 21 22 25 25 25 24 23 22 23 24 24 22 23 23 22 21 20 20 19 18 17 16 14 14 12 12 12 13 14 14 13 13 13
23 24 28 35 33 29 23 23 22 22 25 23 22 23 23 23 26 23 22 20 20 19 19 19 18 17 17 17 16 17 17 17 16 14 14 13 11 13 14 14 14 13 13 12
25 24 26 27 31 26 22 22 21 25 21 23 22 22 23 24 23 22 21 20 19 19 18 18 18 18 18 17 17 17 17 17 15 13 13 14 13 14 14 14 14 13 13 13
26 28 30 32 32 27 22 22 22 21 22 22 22 23 23 23 22 22 21 20 20 20 19 18 19 19 18 17 17 18 17 15 14 15 16 16 15 14 13 14 13 13 13 14
26 22 24 23 23 21 20 21 21 21 22 22 22 22 23 22 22 22 22 21 20 20 19 19 20 20 19 18 17 18 17 15 16 17 17 17 15 14 13 14 14 14 13 14
23 22 23 23 21 21 20 21 21 21 21 21 21 21 22 23 22 22 21 21 21 20 20 21 22 22 21 19 18 18 16 17 18 19 18 17 17 16 14 14 15 15 14 14
21 22 24 23 21 24 22 22 21 21 21 21 21 22 22 22 22 22 21 21 21 21 21 22 22 22 22 20 19 18 18 19 19 19 18 18 17 17 18 16 15 14 13 12
22 20 22 20 19 20 21 21 21 22 22 22 23 23 22 22 22 22 22 21 22 23 22 23 23 23 22 21 20 19 19 19 20 20 19 19 18 19 19 18 18 14 12 11